This demonstration page uses our WeatherBlox Daily Observations layout. Learn more.

Left ArrowRight Arrow

36.17497, -115.13722

Hourly Observations for October 28, 2021

Temp ( °F °C ) Dew Point ( °F °C ) Humidity (%) Winds ( mph kmh ) Pressure ( in mb ) Visibility ( mi km ) Precip ( " mm )
12:53 am 00:53 Clear 59 15 36 2.2 42 42 N N/A 30.24 1024 10 16 N/A
1:53 am 01:53 Clear 58 14.4 38 3.3 48 48 WNW 6 9 30.23 1024 10 16 N/A
2:53 am 02:53 Clear 60 15.6 39 3.9 46 46 N N/A 30.22 1023 10 16 N/A
3:53 am 03:53 Clear 60 15.6 39 3.9 46 46 NW 3 6 30.21 1023 10 16 N/A
4:53 am 04:53 Clear 63 17.2 38 3.3 40 40 N 9 15 30.22 1023 10 16 N/A
5:53 am 05:53 Clear 63 17.2 39 3.9 41 41 NNW 9 15 30.22 1024 10 16 N/A
6:53 am 06:53 Clear 60 15.6 38 3.3 44 44 NW 8 13 30.24 1024 10 16 N/A
7:53 am 07:53 Sunny 62 16.7 39 3.9 43 43 N 8 13 30.26 1025 10 16 N/A
8:53 am 08:53 Sunny 66 18.9 39 3.9 37 37 NNW 10 17 30.28 1025 10 16 N/A
9:53 am 09:53 Sunny 68 20 40 4.4 36 36 SW 6 9 30.28 1025 10 16 N/A
10:53 am 10:53 Sunny 74 23.3 38 3.3 27 27 NNW 9 15 30.26 1025 10 16 N/A
11:53 am 11:53 Sunny 78 25.6 37 2.8 23 23 N 9 15 30.23 1024 10 16 N/A
12:53 pm 12:53 Sunny 79 26.1 37 2.8 22 22 VRB 6 9 30.20 1023 10 16 N/A
1:53 pm 13:53 Sunny 81 27.2 37 2.8 21 21 E 8 13 30.16 1022 10 16 N/A
2:53 pm 14:53 Sunny 82 27.8 36 2.2 19 19 E 7 11 30.14 1021 10 16 N/A
3:53 pm 15:53 Sunny 82 27.8 36 2.2 19 19 N N/A 30.12 1020 10 16 N/A
4:53 pm 16:53 Sunny 83 28.3 36 2.2 19 19 N N/A 30.10 1019 10 16 N/A
5:53 pm 17:53 Clear 80 26.7 36 2.2 20 20 N N/A 30.09 1019 10 16 N/A
6:53 pm 18:53 Clear 77 25 37 2.8 24 24 N 5 7 30.11 1020 10 16 N/A
7:53 pm 19:53 Clear 73 22.8 38 3.3 28 28 NW 5 7 30.11 1020 10 16 N/A
8:53 pm 20:53 Clear 71 21.7 38 3.3 30 30 N N/A 30.11 1020 10 16 N/A
9:53 pm 21:53 Clear 67 19.4 39 3.9 36 36 WNW 5 7 30.11 1020 10 16 N/A
10:53 pm 22:53 Clear 64 17.8 38 3.3 38 38 WNW 6 9 30.11 1020 10 16 N/A
11:53 pm 23:53 Clear 63 17.2 39 3.9 41 41 WNW 5 7 30.09 1019 10 16 N/A

Powered by AerisWeather